This is the latest recevied weather packets stored in our database for station/object W0AVQ. If no packets are shown the sender has not sent any weather packets the latest 10 day(s).
| Time | Temp. | Humidity | Pressure | Rain* | Wind** | Luminosity | Snow |
|---|---|---|---|---|---|---|---|
| 1777912660 | 25.56° C | 45% | 1011.5 hPa | 0 mm | - | 119 W/m² | - |
| 1777912356 | 25° C | 49% | 1011.7 hPa | 0 mm | - | 144 W/m² | - |
| 1777912053 | 25° C | 47% | 1011.6 hPa | 0 mm | - | 168 W/m² | - |
| 1777911749 | 25° C | 48% | 1011.5 hPa | 0 mm | - | 85 W/m² | - |
| 1777911446 | 25° C | 50% | 1011.5 hPa | 0 mm | - | 75 W/m² | - |
| 1777911142 | 25° C | 52% | 1011.7 hPa | 0 mm | - | 134 W/m² | - |
| 1777910840 | 25° C | 53% | 1011.8 hPa | 0 mm | - | 145 W/m² | - |
| 1777910536 | 25° C | 49% | 1011.9 hPa | 0 mm | - | 133 W/m² | - |
| 1777910234 | 25° C | 48% | 1011.8 hPa | 0 mm | - | 142 W/m² | - |
| 1777909930 | 25° C | 49% | 1011.6 hPa | 0 mm | - | 131 W/m² | - |
| 1777909627 | 24.44° C | 51% | 1011.9 hPa | 0 mm | - | 120 W/m² | - |
| 1777909325 | 24.44° C | 49% | 1011.7 hPa | 0 mm | - | 118 W/m² | - |
| 1777909022 | 24.44° C | 50% | 1011.7 hPa | 0 mm | - | 112 W/m² | - |
| 1777908720 | 24.44° C | 52% | 1012 hPa | 0 mm | - | 108 W/m² | - |
| 1777908417 | 23.89° C | 57% | 1011.8 hPa | 0 mm | - | 104 W/m² | - |
| 1777908114 | 23.89° C | 57% | 1012.1 hPa | 0 mm | - | 105 W/m² | - |
| 1777907810 | 22.78° C | 61% | 1012.1 hPa | 0 mm | - | 101 W/m² | - |
| 1777907505 | 22.78° C | 62% | 1012.1 hPa | 0 mm | - | 92 W/m² | - |
| 1777907202 | 22.78° C | 64% | 1012.1 hPa | 0 mm | - | 93 W/m² | - |
| 1777906898 | 22.78° C | 63% | 1012.3 hPa | 0 mm | - | 90 W/m² | - |
| 1777906596 | 22.22° C | 62% | 1012.3 hPa | 0 mm | - | 94 W/m² | - |
| 1777906291 | 22.78° C | 65% | 1012.4 hPa | 0 mm | - | 78 W/m² | - |
| 1777905988 | 22.22° C | 64% | 1012.2 hPa | 0 mm | - | 82 W/m² | - |
| 1777905685 | 22.78° C | 65% | 1012.5 hPa | 0 mm | - | 78 W/m² | - |
| 1777905382 | 22.22° C | 64% | 1012.2 hPa | 0 mm | - | 78 W/m² | - |
* Rain latest hour (hover to see other rain measurements)
** Current wind speed in m/s (hover to see current wind gust speed)